Location: Drocourt
(49.0571°N, 1.7669°E)
Time: 15:13:24
(UTC+00:00)

Vanguard 1 Rocket - Pass Details

Date: 13 April 2024
Orbit: 651 x 4220 km, 34.3° (Epoch: 19 May)

Event Time Altitude Azimuth Distance (km) Brightness Sun altitude
Rises 22:22:56 0° 251° (WSW) 4,213 10.9 -28.2°
Reaches altitude 10° 22:25:28 10° 243° (WSW) 3,565 10.4 -28.4°
Enters shadow 22:32:34 38° 194° (SSW) 2,801 9.4 -28.8°
Exits shadow 22:53:09 - 115° (ESE) 7,101 11.6 -30.0°
Sets 22:56:17 0° 113° (ESE) 7,821 11.8 -30.1°
